• In Hungary
  • List of Countries
  • For 7 days
  • Water Temperature
  • Satellite Maps
  • Weather Map
  • News
  • Weather Widgets
  • user-avatar
    Login

    Hourly Weather Hartford

    Today, 26 February, Monday

    Time Temperature Precipitation Wind Pressure Humidity
    00:00 -3°C° 0 mm 4 mps 770 mmHg 67%
    01:00 -3°C° 0 mm 4 mps 770 mmHg 70%
    02:00 -3°C° 0 mm 4 mps 770 mmHg 72%
    03:00 -2°C° 0 mm 3 mps 771 mmHg 74%
    04:00 -2°C° 0 mm 3 mps 771 mmHg 75%
    05:00 -3°C° 0 mm 4 mps 771 mmHg 75%
    06:00 -3°C° 0 mm 4 mps 771 mmHg 75%
    07:00 -3°C° 0 mm 4 mps 771 mmHg 70%
    08:00 -2°C° 0 mm 5 mps 771 mmHg 64%
    09:00 -3°C° 0 mm 6 mps 771 mmHg 58%
    10:00 -2°C° 0 mm 6 mps 771 mmHg 55%
    11:00 -1°C° 0 mm 6 mps 771 mmHg 51%
    12:00 -1°C° 0 mm 6 mps 771 mmHg 48%
    13:00 -1°C° 0 mm 6 mps 771 mmHg 47%
    14:00 -1°C° 0 mm 6 mps 771 mmHg 47%
    15:00 -1°C° 0 mm 6 mps 771 mmHg 47%
    16:00 -1°C° 0 mm 5 mps 771 mmHg 51%
    17:00 -1°C° 0 mm 5 mps 771 mmHg 55%
    18:00 -2°C° 0 mm 4 mps 771 mmHg 59%
    19:00 -3°C° 0 mm 4 mps 771 mmHg 62%
    20:00 -3°C° 0 mm 4 mps 771 mmHg 65%
    21:00 -4°C° 0 mm 4 mps 771 mmHg 68%
    22:00 -4°C° 0 mm 3 mps 771 mmHg 69%
    23:00 -4°C° 0 mm 3 mps 771 mmHg 70%

    Tomorrow, 27 February, Tuesday

    Time Temperature Precipitation Wind Pressure Humidity
    00:00 -4°C° 0 mm 3 mps 771 mmHg 70%
    01:00 -4°C° 0 mm 3 mps 770 mmHg 71%
    02:00 -4°C° 0 mm 3 mps 770 mmHg 72%
    03:00 -3°C° 0 mm 2 mps 769 mmHg 73%
    04:00 -3°C° 0.1 mm 2 mps 769 mmHg 75%
    05:00 -3°C° 0.1 mm 2 mps 768 mmHg 78%
    06:00 -3°C° 0.1 mm 2 mps 768 mmHg 80%
    07:00 -2°C° 0.4 mm 3 mps 767 mmHg 82%
    08:00 -2°C° 0.4 mm 3 mps 767 mmHg 83%
    09:00 -2°C° 0.4 mm 3 mps 766 mmHg 84%
    10:00 -2°C° 0.3 mm 4 mps 766 mmHg 82%
    11:00 -2°C° 0.3 mm 5 mps 766 mmHg 80%
    12:00 -1°C° 0.3 mm 5 mps 766 mmHg 78%
    13:00 -1°C° 0.1 mm 5 mps 765 mmHg 74%
    14:00 -1°C° 0.1 mm 5 mps 765 mmHg 70%
    15:00 -2°C° 0.1 mm 6 mps 765 mmHg 66%
    16:00 -2°C° 0 mm 5 mps 765 mmHg 69%
    17:00 -4°C° 0 mm 5 mps 765 mmHg 72%
    18:00 -4°C° 0 mm 4 mps 765 mmHg 76%
    19:00 -4°C° 0 mm 4 mps 765 mmHg 77%
    20:00 -5°C° 0 mm 4 mps 765 mmHg 78%
    21:00 -5°C° 0 mm 4 mps 765 mmHg 79%
    22:00 -5°C° 0.1 mm 4 mps 765 mmHg 80%
    23:00 -5°C° 0.1 mm 4 mps 764 mmHg 80%

    Day after tomorrow, 28 February, Wednesday

    Time Temperature Precipitation Wind Pressure Humidity
    00:00 -5°C° 0.1 mm 4 mps 764 mmHg 80%
    01:00 -5°C° 0.1 mm 4 mps 764 mmHg 79%
    02:00 -6°C° 0.1 mm 5 mps 763 mmHg 79%
    03:00 -7°C° 0.1 mm 5 mps 763 mmHg 78%
    04:00 -7°C° 0 mm 5 mps 763 mmHg 77%
    05:00 -7°C° 0 mm 5 mps 762 mmHg 77%
    06:00 -8°C° 0 mm 4 mps 762 mmHg 76%
    07:00 -7°C° 0 mm 5 mps 762 mmHg 75%
    08:00 -6°C° 0 mm 5 mps 761 mmHg 74%
    09:00 -6°C° 0 mm 5 mps 761 mmHg 73%
    10:00 -5°C° 0.1 mm 6 mps 761 mmHg 70%
    11:00 -5°C° 0.1 mm 6 mps 761 mmHg 67%
    12:00 -4°C° 0.1 mm 7 mps 761 mmHg 64%
    13:00 -4°C° 0.2 mm 7 mps 761 mmHg 64%
    14:00 -4°C° 0.2 mm 7 mps 761 mmHg 64%
    15:00 -5°C° 0.2 mm 8 mps 761 mmHg 64%
    16:00 -6°C° 0.1 mm 7 mps 761 mmHg 66%
    17:00 -6°C° 0.1 mm 6 mps 762 mmHg 68%
    18:00 -8°C° 0.1 mm 6 mps 762 mmHg 70%
    19:00 -8°C° 0.1 mm 6 mps 762 mmHg 73%
    20:00 -8°C° 0.1 mm 6 mps 762 mmHg 75%
    21:00 -8°C° 0.1 mm 6 mps 762 mmHg 78%
    22:00 -8°C° 0.1 mm 6 mps 761 mmHg 79%
    23:00 -9°C° 0.1 mm 6 mps 761 mmHg 80%

    1 March, Thursday

    Time Temperature Precipitation Wind Pressure Humidity
    00:00 -9°C° 0.1 mm 6 mps 761 mmHg 81%
    01:00 -9°C° 0 mm 6 mps 760 mmHg 80%
    02:00 -9°C° 0 mm 7 mps 760 mmHg 80%
    03:00 -8°C° 0 mm 7 mps 759 mmHg 80%
    04:00 -8°C° 0 mm 7 mps 759 mmHg 79%
    05:00 -8°C° 0 mm 8 mps 758 mmHg 79%
    06:00 -8°C° 0 mm 8 mps 758 mmHg 78%
    07:00 -9°C° 0 mm 9 mps 757 mmHg 76%
    08:00 -8°C° 0 mm 10 mps 757 mmHg 75%
    09:00 -8°C° 0 mm 10 mps 757 mmHg 73%
    10:00 -7°C° 0 mm 11 mps 756 mmHg 71%
    11:00 -7°C° 0 mm 11 mps 756 mmHg 69%
    12:00 -6°C° 0 mm 11 mps 755 mmHg 67%
    13:00 -6°C° 0 mm 11 mps 755 mmHg 67%
    14:00 -6°C° 0 mm 11 mps 754 mmHg 68%
    15:00 -6°C° 0 mm 11 mps 754 mmHg 68%
    16:00 -6°C° 0 mm 11 mps 753 mmHg 70%
    17:00 -7°C° 0 mm 11 mps 753 mmHg 71%
    18:00 -7°C° 0 mm 11 mps 752 mmHg 73%
    19:00 -7°C° 0 mm 11 mps 752 mmHg 73%
    20:00 -7°C° 0 mm 11 mps 752 mmHg 73%
    21:00 -7°C° 0 mm 11 mps 751 mmHg 73%
    22:00 -7°C° 0 mm 11 mps 751 mmHg 74%
    23:00 -7°C° 0 mm 11 mps 750 mmHg 74%

    2 March, Friday

    Time Temperature Precipitation Wind Pressure Humidity
    00:00 -7°C° 0 mm 10 mps 750 mmHg 74%
    01:00 -7°C° 0.1 mm 11 mps 749 mmHg 75%
    02:00 -7°C° 0.1 mm 11 mps 749 mmHg 76%
    03:00 -7°C° 0.1 mm 11 mps 748 mmHg 77%
    04:00 -7°C° 0.3 mm 11 mps 748 mmHg 79%
    05:00 -7°C° 0.3 mm 11 mps 748 mmHg 80%
    06:00 -7°C° 0.3 mm 10 mps 747 mmHg 81%
    07:00 -7°C° 0.8 mm 10 mps 747 mmHg 84%
    08:00 -7°C° 0.8 mm 10 mps 747 mmHg 86%
    09:00 -6°C° 0.8 mm 9 mps 747 mmHg 89%
    10:00 -6°C° 0.3 mm 9 mps 747 mmHg 88%
    11:00 -5°C° 0.3 mm 9 mps 747 mmHg 88%
    12:00 -5°C° 0.3 mm 9 mps 746 mmHg 87%
    13:00 -5°C° 0 mm 8 mps 746 mmHg 87%
    14:00 -4°C° 0 mm 8 mps 746 mmHg 88%
    15:00 -3°C° 0 mm 7 mps 746 mmHg 88%
    16:00 -3°C° 0 mm 7 mps 746 mmHg 89%
    17:00 -3°C° 0 mm 7 mps 745 mmHg 89%
    18:00 -3°C° 0 mm 6 mps 745 mmHg 90%
    19:00 -3°C° 0.3 mm 7 mps 744 mmHg 90%
    20:00 -3°C° 0.3 mm 7 mps 744 mmHg 91%
    21:00 -4°C° 0.3 mm 8 mps 743 mmHg 91%
    22:00 -4°C° 0.6 mm 8 mps 743 mmHg 91%
    23:00 -2°C° 0.6 mm 8 mps 742 mmHg 91%

    3 March, Saturday

    Time Temperature Precipitation Wind Pressure Humidity
    00:00 -3°C° 0.6 mm 9 mps 741 mmHg 91%
    01:00 -2°C° 1.1 mm 8 mps 741 mmHg 92%
    02:00 -2°C° 1.1 mm 8 mps 740 mmHg 93%
    03:00 -2°C° 1.1 mm 7 mps 740 mmHg 94%
    04:00 -2°C° 0.5 mm 6 mps 740 mmHg 95%
    05:00 -1°C° 0.5 mm 5 mps 740 mmHg 96%
    06:00 -1°C° 0.5 mm 4 mps 740 mmHg 97%
    07:00 0°C° 0.1 mm 3 mps 741 mmHg 97%
    08:00 0°C° 0.1 mm 3 mps 741 mmHg 98%
    09:00 +1°C° 0.1 mm 2 mps 742 mmHg 98%
    10:00 +2°C° 0 mm 2 mps 742 mmHg 98%
    11:00 +2°C° 0 mm 2 mps 743 mmHg 99%
    12:00 +3°C° 0 mm 2 mps 743 mmHg 99%
    13:00 +3°C° 0 mm 2 mps 743 mmHg 99%
    14:00 +4°C° 0 mm 1 mps 743 mmHg 99%
    15:00 +4°C° 0 mm 1 mps 743 mmHg 99%
    16:00 +2°C° 0 mm 2 mps 743 mmHg 98%
    17:00 +2°C° 0 mm 2 mps 743 mmHg 98%
    18:00 +1°C° 0 mm 3 mps 743 mmHg 97%
    19:00 0°C° 0.1 mm 4 mps 743 mmHg 97%
    20:00 0°C° 0.1 mm 5 mps 743 mmHg 96%
    21:00 -1°C° 0.1 mm 6 mps 742 mmHg 96%
    22:00 -1°C° 0.7 mm 6 mps 742 mmHg 96%
    23:00 -1°C° 0.7 mm 6 mps 741 mmHg 95%
    Show more